Location: Reeth
(54.3881°N, 1.9432°W)
Time: 05:40:24
(UTC+01:00)

ISS - Visible Passes

Search period start: 21 September 2018 00:00
Search period end: 01 October 2018 00:00
Orbit: 403 x 408 km, 51.6° (Epoch: 21 September)

Date Brightness Start Highest point End Pass type
(mag) Time Alt. Az. Time Alt. Az. Time Alt. Az.
23 Sep -1.6 20:11:10 10° SSE 20:12:20 11° SE 20:12:20 11° SE visible
24 Sep -2.3 20:53:36 10° SSW 20:55:36 23° S 20:55:36 23° S visible
25 Sep -2.1 20:02:17 10° SSW 20:04:43 19° SSE 20:06:01 16° ESE visible
25 Sep -1.6 21:37:34 10° WSW 21:38:41 19° SW 21:38:41 19° SW visible
26 Sep -3.2 20:45:50 10° SW 20:48:56 37° SSE 20:48:59 37° SSE visible
27 Sep -2.7 19:54:14 10° SW 19:57:09 29° SSE 19:59:10 16° ESE visible
27 Sep -2.1 21:30:05 10° WSW 21:31:50 27° WSW 21:31:50 27° WSW visible
28 Sep -3.5 20:38:15 10° WSW 20:41:28 48° S 20:41:57 43° SE visible
28 Sep -0.6 22:14:32 10° W 22:14:37 11° W 22:14:37 11° W visible
29 Sep -3.1 19:46:29 10° SW 19:49:37 40° SSE 19:52:00 15° E visible
29 Sep -2.3 21:22:38 10° W 21:24:40 32° WSW 21:24:40 32° WSW visible
30 Sep -3.5 20:30:44 10° WSW 20:33:59 53° S 20:34:42 42° SE visible
30 Sep -0.6 22:07:08 10° W 22:07:21 11° W 22:07:21 11° W visible
